{"data":{"norad_id":55478,"epoch":"2026-09-20T12:58:45.698880Z","epoch_age_seconds":96835,"freshness":"FRESH","line1":"1 55478U 23015AF  26263.54080670 -.00000715  00000+0 -16443-4 0  9995","line2":"2 55478  43.0036 297.7089 0001277 286.1609  73.9103 15.27577826200643","mean_motion":15.27577826,"eccentricity":0.0001277,"inclination_deg":43.0036,"raan_deg":297.7089,"arg_perigee_deg":286.1609,"mean_anomaly_deg":73.9103,"bstar":-1.6443e-5,"rev_number":20064,"period_min":94.266882871079,"perigee_km":482.17943148971,"apogee_km":483.93178008122,"semimajor_km":6861.1926057855,"source":"CELESTRAK","updated_at":"2026-09-21T09:00:33.233700Z"}}